Location: Caltech
(34.1382°N, 118.1253°W)
Time: 11:35:31
(UTC-07:00)

Cosmos 44 Rocket - Visible Passes

Search period start: 27 April 2015 00:00
Search period end: 07 May 2015 00:00
Orbit: 658 x 733 km, 65.1° (Epoch: 27 April)

Date Brightness Start Highest point End Pass type
(mag) Time Alt. Az. Time Alt. Az. Time Alt. Az.
27 Apr 6.2 00:03:40 10° N 00:04:06 12° N 00:04:06 12° N visible
28 Apr 6.0 23:46:01 10° N 23:46:57 15° N 23:46:57 15° N visible
29 Apr 5.8 22:47:57 10° NNE 22:49:04 13° NNE 22:49:04 13° NNE visible
30 Apr 6.3 00:27:44 10° NW 00:27:47 10° NW 00:27:47 10° NW visible
30 Apr 5.7 23:28:27 10° NNW 23:29:56 19° N 23:29:56 19° N visible
01 May 5.5 22:29:58 10° N 22:32:06 17° NNE 22:32:06 17° NNE visible
02 May 6.2 00:10:28 10° NW 00:10:50 12° NW 00:10:50 12° NW visible
02 May 5.3 23:10:57 10° NNW 23:13:02 25° NNW 23:13:02 25° NNW visible
03 May 5.0 22:12:11 10° N 22:15:16 23° NE 22:15:16 23° NE visible
03 May 6.0 23:53:17 10° NW 23:54:00 14° NW 23:54:00 14° NW visible
04 May 5.6 21:15:28 10° NE 21:16:03 10° NE 21:16:54 10° NE visible
04 May 4.8 22:53:31 10° NNW 22:56:16 34° NNW 22:56:16 34° NNW visible
05 May 4.4 21:54:30 10° N 21:58:35 31° NE 21:58:35 31° NE visible
05 May 5.9 23:36:13 10° NW 23:37:19 15° WNW 23:37:19 15° WNW visible
06 May 5.4 20:56:35 10° NNE 20:58:54 14° NE 21:00:55 11° ENE visible
06 May 4.2 22:36:09 10° NNW 22:39:40 47° NW 22:39:40 47° NW visible
